Regional Weather Roundup
Issued by NWS

Home | Current Version | Previous Version | Graphics & Text | Print | Product List | Glossary Off
Versions: 1 2 3 4 5 6 7 8 9 10 11 12 13 14 15 16 17 18 19 20 21 22 23 24 25 26 27 28 29 30 31 32 33 34 35 36 37 38 39 40 41 42 43 44 45 46 47 48 49 50

000
ASUS43 KMKX 250221
RWRWI

WISCONSIN REGIONAL WEATHER ROUNDUP
NATIONAL WEATHER SERVICE MILWAUKEE/SULLIVAN WI
900 PM CDT THU MAY 24 2018

NOTE: "FAIR" INDICATES FEW OR NO CLOUDS BELOW 12,000 FEET WITH NO
SIGNIFICANT WEATHER AND/OR OBSTRUCTIONS TO VISIBILITY.

WIZ001-002-006>008-014>016-023>028-250300-
NORTHWEST WISCONSIN

CITY           SKY/WX    TMP DP  RH WIND       PRES   REMARKS
SUPERIOR ARPT  CLOUDY    53  53 100 CALM      29.85S FOG
ASHLAND        FOG       64  64 100 CALM      29.85F VSB 3/4
HAYWARD        FAIR      71  70  96 CALM      29.87F
SIREN          FAIR      78  61  55 S6        29.85F
CUMBERLAND     FAIR      75  55  50 S8        29.88F
RICE LAKE      FAIR      79  58  49 SE7       29.89F HX  80
CHETEK         FAIR      78  64  63 S6        29.89S HX  80
LADYSMITH      FAIR      78  63  60 S5        29.93S HX  80
EAU CLAIRE     FAIR      81  65  58 S13       29.88F HX  83
MENOMONIE      FAIR      77  61  58 SE8       29.88F
NEW RICHMOND   LGT RAIN  74  57  54 SW25G35   29.92R
OSCEOLA        FAIR      74  59  59 SW17G24   29.91R
$$

WIZ003>005-009-010-017-018-250300-
NORTH CENTRAL WISCONSIN

CITY           SKY/WX    TMP DP  RH WIND       PRES   REMARKS
MANITOWISH WTR LGT RAIN  63  63 100 E6        29.94F
ARBOR VITAE      N/A     64  62  93 E9        29.96F
WOODRUFF         N/A     64  62  93 E9        29.96F
RHINELANDER    CLOUDY    72  61  68 NE8       29.98R
EAGLE RIVER    HVY RAIN  63  62  99 N10       29.99S
LAND O LAKES   RAIN      65  64  97 S3        30.02R
PHILLIPS       CLOUDY    76  63  64 SE3       29.93S
TOMAHAWK       FAIR      71  62  72 CALM      29.96F
MEDFORD        FAIR      75  61  62 S7        29.95F
MERRILL        FAIR      77  63  61 S3        29.96F
$$

WIZ029-030-035-036-043>047-250300-
CENTRAL WISCONSIN

CITY           SKY/WX    TMP DP  RH WIND       PRES   REMARKS
WAUSAU         FAIR      78  60  53 S9        29.94F
MOSINEE        MOCLDY    75  61  60 S8        29.98F
MARSHFIELD     FAIR      72  63  73 S8        29.96S
STEVENS POINT  FAIR      75  59  57 S5        29.98S
WAUPACA        FAIR      76  60  57 CALM      29.97S
WAUTOMA        FAIR      76  61  59 S3        29.98
WISC RAPIDS    FAIR      76  61  59 S6        29.97F
CAMP DOUGLAS   FAIR      71  65  80 CALM      29.96F
$$

WIZ011>013-019>022-031-037>040-048>050-250300-
NORTHEAST WISCONSIN

CITY           SKY/WX    TMP DP  RH WIND       PRES   REMARKS
ANTIGO         FAIR      70  60  68 S6        29.98S
SHAWANO        FAIR      79  60  51 S3        29.96S HX  80
OCONTO         FAIR      71  59  64 S5        29.96S
STURGEON BAY   FAIR      69  53  56 S13       29.98F
GREEN BAY      FAIR      74  59  59 S9        29.97F
MANITOWOC      FAIR      69  51  52 S10       30.00F
APPLETON       MOCLDY    73  55  53 S7        29.97S
CLINTONVILLE   FAIR      77  58  52 S6        29.97R
OSHKOSH        FAIR      72  61  68 S5        29.98S
$$

WIZ032>034-041-042-053>061-250300-
SOUTHWEST WISCONSIN

CITY           SKY/WX    TMP DP  RH WIND       PRES   REMARKS
LA CROSSE      MOCLDY    80  66  62 SE5       29.91F HX  82
SPARTA         FAIR      74  65  73 SE5       29.95S
VIROQUA        FAIR      77  65  66 S7        29.97S
BOSCOBEL       FAIR      81  64  56 S6        29.95S HX  82
PRAIRIE DU CHI FAIR      80  61  51 SE5       29.94F HX  81
PLATTEVILLE    FAIR      77  65  65 S8        30.00R
$$

WIZ056-057-062-063-064-067-068-250300-
SOUTH CENTRAL WISCONSIN

CITY           SKY/WX    TMP DP  RH WIND       PRES   REMARKS
REEDSBURG      FAIR      76  64  64 CALM      29.97S
BARABOO/DELLS  FAIR      75  61  61 CALM      29.98S
LONE ROCK      FAIR      76  64  66 SE3       29.96S
MINERAL POINT  FAIR      79  63  57 S5        30.00S HX  80
MADISON        FAIR      78  62  57 S5        29.98F HX  80
MIDDLETON      FAIR      77  63  61 CALM      30.00S
WATERTOWN      FAIR      74  61  63 SE5       29.99F
MONROE         FAIR      77  59  53 S7        30.00S
JANESVILLE     FAIR      79  55  44 S6        30.00S
$$

WIZ051-052-058>065-066-070>072-250300-
SOUTHEAST WISCONSIN

CITY           SKY/WX    TMP DP  RH WIND       PRES   REMARKS
MILWAUKEE      FAIR      72  52  49 S8        30.02F
WAUKESHA       CLEAR     72  54  53 SE7       30.03F
MILWAUKEE/TIMM CLEAR     73  46  38 S8        30.02F
RACINE         FAIR      67  51  56 S8        30.04F
BURLINGTON     FAIR      73  55  54 SE5       30.02S
KENOSHA        FAIR      69  52  54 S7        30.03F
FOND DU LAC    FAIR      73  60  63 S6        29.98F
SHEBOYGAN      FAIR      65  52  62 S5        30.01S
WEST BEND      FAIR      72  54  53 S5        30.01S
JUNEAU         FAIR      74  60  62 S6        30.01R
$$

LSZ147-162-250300-
LAKE SUPERIOR

STATION/POSITION TIME  TEMP    WIND        PRES    WAVE
                       AIR SEA DIR/SP/G            HT/PER
                 (UTC) (F)     (DEG/KT/KT) (MB)    (FT/S)
W MID LAKE BUOY  0150   41 36  100/  4/  6 1011.5F   0
DEVILS ISLAND    0200   54     110/  9/ 10 1010.7F
SAXON HARBOR     0140   70     150/  7/ 12 1010.5F
$$

LMZ867-665-643>646-250300-
LAKE MICHIGAN

STATION/POSITION TIME  TEMP    WIND        PRES    WAVE
                       AIR SEA DIR/SP/G            HT/PER
                 (UTC) (F)     (DEG/KT/KT) (MB)    (FT/S)
N MID LAKE BUOY  0200   42 38  200/ 10/ 12 1015.5
NORTHPORT PIER   0140   67     170/  5/  8 1014.9F
KEWAUNEE LAKESHO 0154   55     170/  7/  9 1015.2F
SHEBOYGAN LAKESH 0200   64     190/ 18/ 18 1015.7F
PORT WASHINGTON  0140   61     200/  6/  9 1016.9F
ATWATER BUOY     0137   56 50  160/  8/ 10 1016.4F   1
MILWAUKEE LAKESH 0200   60      CALM  /  1   N/A
S MID LAKE BUOY  0150   57 40  140/  8/  8 1017.4F   0
KENOSHA   LAKESH 0200   63                 1016.6
$$

TC  - TEMPERATURE IN CELSIUS
VSB - VISIBILITY IN STATUTE MILES
WCI - WIND CHILL INDEX
HX  - HEAT INDEX





USA.gov is the U.S. government's official web portal to all federal, state and local government web resources and services.